GW4551 Weather Reports


time (UTC)temp
C
wind
direction
speed
KPH
gust
KPH
rain 1hr
cm
rain 24hr
cm
rain mn
cm
humidity
%
barometer
mb
20260507224023 7 0.0 0.0 0.00 0.00 0.00 82 1016.6
20260507223019 7 188 0.0 1.6 0.00 0.00 0.00 82 1016.7
20260507222035 7 0.0 0.0 0.00 0.00 0.00 81 1016.7
20260507221031 7 187 0.0 1.6 0.00 0.00 0.00 81 1016.6
20260507220027 7 183 0.0 1.6 0.00 0.00 0.00 81 1016.7
20260507215023 8 169 0.0 3.2 0.00 0.00 0.00 80 1016.5
20260507214059 8 117 0.0 1.6 0.00 0.00 0.00 79 1016.4
20260507213035 8 122 1.6 4.8 0.00 0.00 0.00 78 1016.8
20260507212030 8 187 1.6 1.6 0.00 0.00 0.00 77 1016.8
20260507211106 8 187 1.6 1.6 0.00 0.00 0.00 77 1016.8
20260507210020 8 0.0 0.0 0.00 0.00 0.00 75 1016.8
20260507205116 9 132 1.6 3.2 0.00 0.00 0.00 74 1016.6
20260507204032 9 136 0.0 1.6 0.00 0.00 0.00 74 1016.6
20260507203027 9 135 1.6 1.6 0.00 0.00 0.00 73 1016.4
20260507202023 9 135 1.6 3.2 0.00 0.00 0.00 74 1016.5
20260507201017 9 177 0.0 1.6 0.00 0.00 0.00 74 1016.2
20260507200033 10 174 0.0 1.6 0.00 0.00 0.00 72 1016.0
20260507195028 10 149 1.6 1.6 0.00 0.00 0.00 71 1015.9
20260507194023 10 142 1.6 3.2 0.00 0.00 0.00 69 1015.8
20260507193018 11 135 1.6 4.8 0.00 0.00 0.00 68 1015.8
20260507192033 11 129 1.6 3.2 0.00 0.00 0.00 69 1015.6
20260507191109 11 159 0.0 1.6 0.00 0.00 0.00 68 1015.5
20260507190023 12 145 1.6 3.2 0.00 0.00 0.00 66 1015.4
20260507185019 12 163 1.6 3.2 0.00 0.00 0.00 64 1015.5
20260507184033 12 176 1.6 3.2 0.00 0.00 0.00 65 1015.5
20260507183028 12 164 1.6 3.2 0.00 0.00 0.00 65 1015.5
20260507182024 12 169 1.6 3.2 0.00 0.00 0.00 64 1015.5
20260507181019 12 164 1.6 1.6 0.00 0.00 0.00 64 1015.4
20260507180530 12 180 1.6 3.2 0.00 0.00 0.00 64 1015.4
20260507175525 12 168 3.2 6.4 0.00 0.00 0.00 64 1015.4
20260507174521 12 179 4.8 12.9 0.00 0.00 0.00 64 1015.3
20260507173536 12 185 4.8 9.7 0.00 0.00 0.00 65 1015.4
20260507172612 12 182 4.8 12.9 0.00 0.00 0.00 63 1015.4
20260507171528 12 177 4.8 9.7 0.00 0.00 0.00 64 1015.4
20260507170524 12 186 6.4 11.3 0.00 0.00 0.00 65 1015.4
20260507165600 12 185 6.4 12.9 0.00 0.00 0.00 65 1015.3
20260507164535 12 185 4.8 11.3 0.00 0.00 0.00 64 1015.2
20260507163531 13 180 4.8 11.3 0.00 0.00 0.00 62 1015.4
20260507162527 13 189 6.4 11.3 0.00 0.00 0.00 62 1015.3
20260507161523 13 176 3.2 6.4 0.00 0.00 0.00 60 1015.3
20260507160519 13 151 1.6 3.2 0.00 0.00 0.00 60 1015.5
20260507155535 13 173 1.6 4.8 0.00 0.00 0.00 60 1015.4
20260507154531 13 156 3.2 4.8 0.00 0.00 0.00 59 1015.5
20260507153606 13 147 1.6 4.8 0.00 0.00 0.00 60 1015.5
20260507152523 13 172 1.6 4.8 0.00 0.00 0.00 62 1015.6
20260507151519 13 127 4.8 11.3 0.00 0.00 0.00 62 1015.6
20260507150535 13 132 6.4 14.5 0.00 0.00 0.00 61 1015.5
20260507145531 13 170 4.8 12.9 0.00 0.00 0.00 63 1015.6
20260507144527 13 167 4.8 12.9 0.00 0.00 0.00 61 1015.5
20260507143603 13 167 4.8 11.3 0.00 0.00 0.00 63 1015.6
20260507142519 13 173 4.8 9.7 0.00 0.00 0.00 64 1015.7
20260507141535 13 171 3.2 9.7 0.00 0.00 0.00 63 1015.7
20260507140611 13 172 3.2 9.7 0.00 0.00 0.00 65 1015.7
20260507135526 13 172 4.8 11.3 0.00 0.00 0.00 65 1015.9
20260507134603 13 179 4.8 9.7 0.00 0.00 0.00 66 1015.8
20260507133518 13 188 6.4 12.9 0.00 0.00 0.00 65 1015.9
20260507132614 13 190 4.8 12.9 0.00 0.00 0.00 64 1015.9
20260507131609 14 195 3.2 12.9 0.00 0.00 0.00 55 1015.9
20260507130536 14 242 0.0 4.8 0.00 0.00 0.00 47 1015.9
20260507125519 13 303 1.6 4.8 0.00 0.00 0.00 46 1015.8
20260507124535 13 284 3.2 6.4 0.00 0.00 0.00 47 1015.9
20260507123530 14 313 3.2 4.8 0.00 0.00 0.00 46 1015.9
20260507122525 13 333 3.2 4.8 0.00 0.00 0.00 45 1015.9
20260507121522 14 329 4.8 9.7 0.00 0.00 0.00 44 1015.9
20260507120517 15 318 3.2 6.4 0.00 0.00 0.00 43 1015.9
20260507115533 15 16 3.2 11.3 0.00 0.00 0.00 42 1016.0
20260507114529 14 304 4.8 9.7 0.00 0.00 0.00 45 1015.9
20260507113525 15 324 1.6 4.8 0.00 0.00 0.00 43 1015.9
20260507112520 14 222 0.0 1.6 0.00 0.00 0.00 45 1015.9
20260507111537 14 186 1.6 4.8 0.00 0.00 0.00 45 1015.9
20260507110612 14 118 0.0 4.8 0.00 0.00 0.00 47 1016.1
20260507105528 13 28 3.2 6.4 0.00 0.00 0.00 48 1016.1
20260507104523 13 153 0.0 1.6 0.00 0.00 0.00 51 1016.2
20260507103559 13 340 0.0 3.2 0.00 0.00 0.00 51 1016.1
20260507102535 13 35 1.6 6.4 0.00 0.00 0.00 51 1016.2
20260507101530 13 337 3.2 4.8 0.00 0.00 0.00 49 1016.3
20260507100607 15 203 1.6 4.8 0.00 0.00 0.00 48 1016.2
20260507095602 15 121 0.0 3.2 0.00 0.00 0.00 51 1016.3
20260507094518 13 343 3.2 4.8 0.00 0.00 0.00 54 1016.3
20260507093534 14 338 3.2 9.7 0.00 0.00 0.00 51 1016.3
20260507092530 14 79 1.6 4.8 0.00 0.00 0.00 51 1016.3
20260507091527 13 154 0.0 3.2 0.00 0.00 0.00 50 1016.3
20260507090523 13 106 1.6 4.8 0.00 0.00 0.00 60 1016.3
20260507085518 13 96 1.6 6.4 0.00 0.00 0.00 66 1016.3
20260507084534 12 175 1.6 3.2 0.00 0.00 0.00 67 1016.5
20260507083531 12 190 1.6 4.8 0.00 0.00 0.00 70 1016.4
20260507082526 12 130 1.6 6.4 0.00 0.00 0.00 72 1016.3
20260507081602 12 89 0.0 3.2 0.00 0.00 0.00 73 1016.3
20260507080517 11 105 0.0 3.2 0.00 0.00 0.00 75 1016.3
20260507075533 10 124 0.0 3.2 0.00 0.00 0.00 80 1016.2
20260507074528 10 171 1.6 3.2 0.00 0.00 0.00 81 1016.2
20260507073524 9 62 0.0 3.2 0.00 0.00 0.00 85 1016.2
20260507072520 8 144 0.0 1.6 0.00 0.00 0.00 87 1016.2
20260507071535 7 341 0.0 1.6 0.00 0.00 0.00 90 1016.1
20260507070530 7 26 0.0 3.2 0.00 0.00 0.00 91 1016.0
20260507065526 6 349 1.6 3.2 0.00 0.00 0.00 92 1016.1
20260507064522 6 343 1.6 3.2 0.00 0.00 0.00 94 1016.1
20260507063558 6 8 1.6 3.2 0.00 0.00 0.00 95 1016.1
20260507062534 6 35 1.6 3.2 0.00 0.00 0.00 96 1016.0
20260507061530 5 39 0.0 1.6 0.00 0.00 0.00 96 1016.0
20260507060525 5 327 0.0 1.6 0.00 0.00 0.00 96 1016.1
20260507055521 5 0.0 0.0 0.00 0.00 0.00 95 1015.9
20260507054558 4 0.0 0.0 0.00 0.00 0.00 95 1015.9
20260507053533 4 346 1.6 1.6 0.00 0.00 0.00 95 1015.7
20260507052529 4 0.0 0.0 0.00 0.00 0.00 95 1015.7
20260507051525 4 347 0.0 1.6 0.00 0.00 0.00 95 1015.7
20260507050520 4 341 0.0 1.6 0.00 0.00 0.00 95 1015.6
20260507045516 4 338 1.6 1.6 0.00 0.00 0.00 95 1015.5
20260507044531 4 335 1.6 1.6 0.00 0.00 0.00 95 1015.5
20260507043528 4 330 1.6 1.6 0.00 0.00 0.00 95 1015.5
20260507042604 4 332 1.6 1.6 0.00 0.00 0.00 95 1015.5
20260507041520 4 337 1.6 3.2 0.00 0.00 0.00 95 1015.5
20260507040615 4 336 3.2 3.2 0.00 0.00 0.00 95 1015.5
20260507035530 4 339 3.2 3.2 0.00 0.00 0.00 94 1015.6
20260507034526 4 344 1.6 3.2 0.00 0.00 0.00 94 1015.5
20260507033522 4 339 3.2 4.8 0.00 0.00 0.00 94 1015.5
20260507032559 4 336 3.2 4.8 0.00 0.00 0.00 94 1015.5
20260507031534 4 335 1.6 3.2 0.00 0.00 0.00 94 1015.5
20260507030530 4 336 1.6 3.2 0.00 0.00 0.00 93 1015.5
20260507025525 5 334 3.2 3.2 0.00 0.00 0.00 93 1015.5
20260507024521 5 342 3.2 3.2 0.00 0.00 0.00 93 1015.4
20260507023517 5 340 1.6 3.2 0.00 0.00 0.00 93 1015.3
20260507022533 5 337 3.2 3.2 0.00 0.00 0.00 92 1015.4
20260507021609 5 337 3.2 4.8 0.00 0.00 0.00 92 1015.3
20260507020524 5 339 3.2 3.2 0.00 0.00 0.00 91 1015.3
20260507015520 5 336 3.2 4.8 0.00 0.00 0.00 91 1015.2
20260507014517 5 335 4.8 4.8 0.00 0.00 0.00 90 1015.2
20260507013533 5 341 3.2 4.8 0.00 0.00 0.00 90 1015.1
20260507012528 5 337 3.2 4.8 0.00 0.00 0.00 89 1015.1
20260507011524 5 341 4.8 4.8 0.00 0.00 0.00 88 1015.2
20260507010520 5 340 4.8 4.8 0.00 0.00 0.00 87 1015.3
20260507005536 5 340 3.2 4.8 0.00 0.00 0.00 87 1015.2
20260507004532 5 339 3.2 4.8 0.00 0.00 0.00 86 1015.3
20260507003527 5 340 3.2 4.8 0.00 0.00 0.00 85 1015.3
20260507002602 6 343 3.2 4.8 0.00 0.00 0.00 84 1015.3
20260507001518 6 338 3.2 4.8 0.00 0.00 0.00 83 1015.3
20260507000534 6 341 3.2 4.8 0.00 0.00 0.00 82 1015.3
20260506235530 6 338 1.6 3.2 0.00 0.00 0.00 81 1015.4
20260506234526 6 330 1.6 3.2 0.00 0.00 0.00 80 1015.2
20260506233522 6 326 0.0 1.6 0.00 0.00 0.00 80 1015.1
20260506232517 7 340 1.6 3.2 0.00 0.00 0.00 78 1015.2
20260506231534 7 29 1.6 3.2 0.00 0.00 0.00 77 1014.9
20260506230529 7 32 3.2 3.2 0.00 0.00 0.00 77 1015.1
20260506225526 7 352 1.6 1.6 0.00 0.00 0.00 76 1015.1
20260506224521 7 337 3.2 4.8 0.00 0.00 0.00 75 1015.1